Weather History for KAWM - January, 2014

Change the Weather History Date:

Thursday, January 9, 2014

  Actual Average Record
Temperature  
Mean Temperature 36 °F -  
Max Temperature 39 °F 44 °F 68 °F (1965)
Min Temperature 32 °F 27 °F -2 °F (1988)
Degree Days  
Heating Degree Days 30    
Moisture  
Dew Point 33 °F    
Average Humidity 90    
Maximum Humidity 97    
Minimum Humidity 85    
Precipitation  
Precipitation 0.51 in - - ()
Sea Level Pressure  
Sea Level Pressure 30.30 in    
Wind  
Wind Speed 4 mph (ESE)    
Max Wind Speed 15 mph    
Max Gust Speed -    
Visibility 9 miles    
Events Rain    
Averages and records for this station are not official NWS values.
T = Trace of Precipitation, MM = Missing Value Source: NWS Daily Summary

Daily Weather History Graph

Daily Weather History Graph

Search for Another Location

Airport or City:

Trip Planner

Search our weather history database for the weather conditions in past years. The results will help you decide how hot, cold, wet, or windy it might be!

Date:

Astronomy

Jan. 09, 2014 Rise Set
Actual Time 7:09 AM CST 5:06 PM CST
Civil Twilight 6:41 AM CST 5:34 PM CST
Nautical Twilight 6:10 AM CST 6:05 PM CST
Astronomical Twilight 5:39 AM CST 6:36 PM CST
Moon 12:28 PM CST (1/9) 1:23 AM CST (1/9)
Length of Visible Light 10h 52m
Length of Day
9h 56m
Waxing Gibbous, 66% of the Moon is Illuminated
Jan 9
Waxing Gibbous
Jan 15
Full
Jan 23
Last Quarter
Jan 30
New
Feb 6
First Quarter

Hourly Weather History & Observations

Time (CST) Temp. Windchill Dew Point Humidity Pressure Visibility Wind Dir Wind Speed Gust Speed Precip Events Conditions
12:53 AM 33.1 °F 30.0 °F 30.9 °F 92% 30.40 in 9.0 mi ENE 3.5 mph - 0.04 in Rain Light Rain
1:53 AM 33.1 °F - 30.9 °F 92% 30.41 in 10.0 mi Calm Calm - 0.02 in   Overcast
2:53 AM 34.0 °F - 30.9 °F 89% 30.40 in 10.0 mi Calm Calm - 0.01 in Rain Light Rain
3:53 AM 34.0 °F 31.0 °F 30.0 °F 85% 30.40 in 10.0 mi East 3.5 mph - 0.00 in   Overcast
4:53 AM 33.1 °F 27.7 °F 28.9 °F 85% 30.38 in 10.0 mi East 5.8 mph - N/A   Overcast
5:53 AM 33.1 °F 28.7 °F 30.0 °F 89% 30.37 in 10.0 mi ESE 4.6 mph - 0.00 in Rain Light Rain
6:28 AM 33.8 °F 30.8 °F 30.2 °F 87% 30.37 in 10.0 mi ESE 3.5 mph - 0.01 in   Overcast
6:53 AM 33.1 °F 27.7 °F 30.0 °F 89% 30.38 in 10.0 mi SE 5.8 mph - 0.01 in   Overcast
7:53 AM 33.1 °F 26.9 °F 28.9 °F 85% 30.40 in 7.0 mi SE 6.9 mph - 0.04 in Rain Light Rain
8:27 AM 32.0 °F 27.5 °F 30.2 °F 93% 30.40 in 4.0 mi SSE 4.6 mph - 0.08 in   Overcast
8:53 AM 32.0 °F 26.4 °F 30.0 °F 92% 30.42 in 3.0 mi SE 5.8 mph - 0.15 in   Overcast
9:53 AM 33.1 °F 24.9 °F 30.9 °F 92% 30.38 in 5.0 mi SE 10.4 mph - 0.10 in Rain Light Rain
10:53 AM 34.0 °F 25.0 °F 30.9 °F 89% 30.37 in 6.0 mi SE 12.7 mph - 0.07 in Rain Light Rain
11:53 AM 35.1 °F 26.9 °F 33.1 °F 92% 30.31 in 10.0 mi SE 11.5 mph - 0.04 in Rain Light Rain
12:53 PM 36.0 °F 26.7 °F 33.1 °F 89% 30.27 in 8.0 mi SSE 15.0 mph - 0.01 in Rain Light Rain
1:53 PM 37.0 °F 29.8 °F 33.1 °F 86% 30.25 in 10.0 mi SSE 10.4 mph - 0.00 in   Overcast
2:53 PM 37.9 °F - 35.1 °F 89% 30.25 in 7.0 mi Calm Calm - 0.02 in Rain Light Rain
3:53 PM 39.0 °F 35.7 °F 35.1 °F 86% 30.24 in 10.0 mi SSE 4.6 mph - 0.00 in   Overcast
5:53 PM 37.0 °F 33.3 °F 35.1 °F 93% 30.23 in 10.0 mi NW 4.6 mph - N/A   Overcast
6:53 PM 36.0 °F - 35.1 °F 97% 30.24 in 8.0 mi Calm Calm - N/A   Overcast
7:53 PM 37.0 °F - 34.0 °F 89% 30.23 in 8.0 mi Calm Calm - N/A   Overcast
8:53 PM 37.0 °F - 35.1 °F 93% 30.23 in 8.0 mi Calm Calm - N/A   Overcast
9:07 PM 37.4 °F 34.9 °F 35.6 °F 93% 30.21 in 10.0 mi NE 3.5 mph - N/A   Overcast
9:31 PM 37.4 °F - 35.6 °F 93% 30.21 in 9.0 mi Calm Calm - N/A   Overcast
9:50 PM 37.4 °F - 35.6 °F 93% 30.22 in 9.0 mi Calm Calm - N/A   Overcast
9:53 PM 37.0 °F - 36.0 °F 96% 30.22 in 9.0 mi Calm Calm - N/A   Overcast
10:53 PM 39.0 °F - 36.0 °F 89% 30.20 in 10.0 mi Calm Calm - N/A   Overcast
11:01 PM 39.2 °F - 35.6 °F 87% 30.20 in 10.0 mi Calm Calm - N/A   Overcast
11:12 PM 37.4 °F - 35.6 °F 93% 30.19 in 10.0 mi Calm Calm - N/A   Overcast
11:53 PM 39.0 °F 36.8 °F 37.0 °F 93% 30.18 in 10.0 mi ENE 3.5 mph - N/A   Overcast